{"data":{"norad_id":65015,"epoch":"2026-05-24T19:53:40.123104Z","epoch_age_seconds":86947,"freshness":"FRESH","line1":"1 65015U 25161A   26144.82893661  .00020859  00000+0  71439-3 0  9992","line2":"2 65015  53.1604 300.7939 0001505  59.7592 300.3558 15.30200749 45887","mean_motion":15.30200749,"eccentricity":0.0001505,"inclination_deg":53.1604,"raan_deg":300.7939,"arg_perigee_deg":59.7592,"mean_anomaly_deg":300.3558,"bstar":0.00071439,"rev_number":4588,"period_min":94.105299643923,"perigee_km":474.18140389137,"apogee_km":476.24426219112,"semimajor_km":6853.3498330412,"source":"CELESTRAK","updated_at":"2026-05-25T13:38:20.636787Z"}}